Regional Weather Roundup
Issued by NWS

Home | Current Version | Previous Version | Text Only | Print | Product List | Glossary On
Versions: 1 2 3 4 5 6 7 8 9 10 11 12 13 14 15 16 17 18 19 20 21 22 23 24 25 26 27 28 29 30 31 32 33 34 35 36 37 38 39 40 41 42 43 44 45 46 47 48 49 50
288
ASUS44 KMEG 281410
RWRTN
TENNESSEE HOURLY STATE WEATHER ROUNDUP
NATIONAL WEATHER SERVICE MEMPHIS TN
900 AM CDT THU JUL 28 2016

TNZ002-004-019-021-049-052-054-088>092-281500-
WEST TENNESSEE

CITY           SKY/WX    TMP DP  RH WIND       PRES   REMARKS
MEMPHIS INTL   CLOUDY    78  74  87 SW6       29.95S
NWS MEMPHIS      N/A     76 N/A N/A MISG        N/A
JACKSON        CLOUDY    77  76  96 SW9       29.95R
DYERSBURG      CLOUDY    79  73  83 CALM      29.95R
UNION CITY     CLOUDY    77  77 100 NW3       29.93R
PARIS          CLOUDY    73  72  94 CALM      29.95R
LEXINGTON      CLOUDY    73  73 100 CALM      29.93R
$$

TNZ008-025-027-028-033-062-065-066-281500-
NORTH MIDDLE TENNESSEE

CITY           SKY/WX    TMP DP  RH WIND       PRES   REMARKS
NASHVILLE      CLOUDY    77  73  87 S8        29.94S
CLARKSVILLE    RAIN      72  70  93 CALM      29.93F FOG
SMYRNA         CLOUDY    78  73  84 S7        29.95S
COOKEVILLE     CLOUDY    79  73  83 SW8       29.97S
CROSSVILLE     PTSUNNY   75  69  81 VRB7      30.02F
$$

TNZ061-075-076-078-094-096-097-281500-
SOUTH MIDDLE TENNESSEE

CITY           SKY/WX    TMP DP  RH WIND       PRES   REMARKS
FAYETTEVILLE   CLOUDY    75  73  94 S10       29.98F FOG
TULLAHOMA      CLOUDY    75  70  83 S13       29.99S
WINCHESTER     CLOUDY    79  70  73 S9        29.99S
MCMINNVILLE    PTSUNNY   81  73  78 SW7       29.97F
COLUMBIA       CLOUDY   N/A N/A N/A S6        29.92S
SHELBYVILLE    CLOUDY    77  73  88 S10       29.97S
$$

TNZ017-018-042-046-047-281500-
NORTHEAST TENNESSEE

CITY           SKY/WX    TMP DP  RH WIND       PRES   REMARKS
TRI CITIES     PTSUNNY   77  72  84 CALM      30.02F
ELIZABETHTON   CLOUDY    75  72  88 CALM      30.02F
$$

TNZ012-013-036-069-073-074-281500-
CENTRAL EAST TENNESSEE

CITY           SKY/WX    TMP DP  RH WIND       PRES   REMARKS
KNOXVILLE      PTSUNNY   82  70  66 SW14      29.98S
OAK RIDGE      CLOUDY    81  70  69 VRB5      29.99F
GATLINBURG     PTSUNNY   84  68  58 W9        29.98S
MORRISTOWN     PTSUNNY   81  70  69 NW8G14    30.00S
$$

TNZ083-085-099-281500-
SOUTHEAST TENNESSEE

CITY           SKY/WX    TMP DP  RH WIND       PRES   REMARKS
CHATTANOOGA    PTSUNNY   80  69  69 S12       30.00F
$$

SKY/WX REPORTED AS FAIR MEANS FEW OR NO CLOUDS BELOW
12 THOUSAND FEET.





USA.gov is the U.S. government's official web portal to all federal, state and local government web resources and services.